User: anonymous   Login
Location: Unspecified
(0.0000°N, 0.0000°E)
Time: 08:58:04
(UTC+00:00)
Language:

STARLINK-5273 - Orbit

View from above orbital plane
View from above orbital plane
View from above satellite
View from above satellite

Ground track
Ground track

The orbit is defined by the following mean orbital elements,

1 54162U          26145.37331660 +.00000000 +00000-0 +53070-4 0 00007
2 54162  53.2124  29.8876 0001218  85.2376 274.8755 15.08826028    08
Epoch (UTC): 25 May 2026 08:57:34
Eccentricity: 0.0001218
inclination: 53.2124°
perigee height: 539 km
apogee height: 541 km
right ascension of ascending node: 29.8876°
argument of perigee: 85.2376°
revolutions per day: 15.08826028
mean anomaly at epoch: 274.8755°

The dashed part of the orbit path shows where the satellite is in the earth's shadow,  

DLR